Location: ?????
(55.8833°N, 37.6500°E)
Time: 11:17:54
(UTC+00:00)

CZ-2C R/B - Pass Details

Date: 27 February 2020
Orbit: 641 x 704 km, 98.4° (Epoch: 09 April)

Event Time Altitude Azimuth Distance (km) Brightness Sun altitude
Rises 17:59:40 0° 14° (NNE) 3,037 7.2 -25.7°
Reaches altitude 10° 18:01:54 10° 12° (NNE) 2,128 6.4 -26.0°
Maximum altitude 18:06:31 68° 291° (WNW) 745 4.0 -26.5°
Drops below altitude 10° 18:11:11 10° 209° (SSW) 2,149 6.3 -27.1°
Sets 18:13:27 0° 207° (SSW) 3,069 7.1 -27.4°
